Weather History for KMLU - March, 2014

Change the Weather History Date:

Saturday, March 8, 2014

  Actual Average Record
Temperature  
Mean Temperature 53 °F 56 °F  
Max Temperature 69 °F 67 °F 83 °F (1974)
Min Temperature 36 °F 45 °F 25 °F (1971)
Degree Days  
Heating Degree Days 12 10  
Month to date heating degree days 160 85  
Since 1 July heating degree days 2486 1979  
Cooling Degree Days 0 1  
Month to date cooling degree days 1 6  
Year to date cooling degree days 3 17  
Growing Degree Days 2 (Base 50)    
Moisture  
Dew Point 43 °F    
Average Humidity 76    
Maximum Humidity 100    
Minimum Humidity 52    
Precipitation  
Precipitation 0.00 in 0.17 in 2.04 in (2012)
Month to date precipitation 0.82 1.35  
Year to date precipitation 5.25 10.99  
Snow  
Snow 0.00 in - - ()
Month to date snowfall 0.0  
Since 1 July snowfall 0.5  
Snow Depth 0.00 in    
Sea Level Pressure  
Sea Level Pressure 30.11 in    
Wind  
Wind Speed 2 mph (SSW)    
Max Wind Speed 9 mph    
Max Gust Speed 12 mph    
Visibility 4 miles    
Events Fog    
T = Trace of Precipitation, MM = Missing Value Source: NWS Daily Summary

Daily Weather History Graph

Daily Weather History Graph

Search for Another Location

Airport or City:

Trip Planner

Search our weather history database for the weather conditions in past years. The results will help you decide how hot, cold, wet, or windy it might be!

Date:

Astronomy

Mar. 08, 2014 Rise Set
Actual Time 6:27 AM CST 6:10 PM CST
Civil Twilight 6:02 AM CST 6:35 PM CST
Nautical Twilight 5:34 AM CST 7:04 PM CST
Astronomical Twilight 5:05 AM CST 7:32 PM CST
Moon 11:29 AM CST (3/8) 12:48 AM CST (3/8)
Length of Visible Light 12h 32m
Length of Day
11h 43m
First Quarter, 52% of the Moon is Illuminated
Mar 8
First Quarter
Mar 16
Full
Mar 23
Last Quarter
Mar 30
New
Apr 7
First Quarter

Hourly Weather History & Observations

Time (CST) Temp. Windchill Dew Point Humidity Pressure Visibility Wind Dir Wind Speed Gust Speed Precip Events Conditions
12:53 AM 43.0 °F - 41.0 °F 93% 30.05 in 6.0 mi Calm Calm - N/A   Clear
1:53 AM 42.1 °F - 41.0 °F 96% 30.05 in 5.0 mi Calm Calm - N/A   Clear
2:53 AM 43.0 °F - 41.0 °F 93% 30.05 in 5.0 mi Calm Calm - N/A   Clear
3:25 AM 42.8 °F - 41.0 °F 93% 30.06 in 2.5 mi Calm Calm - N/A   Clear
3:39 AM 41.0 °F - 39.2 °F 93% 30.06 in 4.0 mi Calm Calm - N/A   Clear
3:46 AM 41.0 °F - 39.2 °F 93% 30.06 in 1.2 mi Calm Calm - N/A   Clear
3:53 AM 41.0 °F - 39.9 °F 96% 30.06 in 0.5 mi Calm Calm - N/A Fog Fog
4:04 AM 42.8 °F - 41.0 °F 93% 30.07 in 1.0 mi Calm Calm - N/A   Clear
4:11 AM 42.8 °F - 41.0 °F 93% 30.07 in 0.5 mi Calm Calm - N/A Fog Fog
4:18 AM 39.2 °F - 39.2 °F 100% 30.06 in 1.0 mi Calm Calm - N/A   Mist
4:25 AM 41.0 °F - 39.2 °F 93% 30.06 in 0.5 mi Calm Calm - N/A Fog Fog
4:31 AM 41.0 °F - 39.2 °F 93% 30.06 in 1.0 mi Calm Calm - N/A   Clear
4:41 AM 41.0 °F - 39.2 °F 93% 30.07 in 2.5 mi Calm Calm - N/A   Clear
4:53 AM 39.9 °F - 39.0 °F 97% 30.07 in 0.8 mi Calm Calm - N/A   Clear
5:01 AM 37.4 °F - 37.4 °F 100% 30.08 in 0.5 mi Calm Calm - N/A Fog Fog
5:07 AM 37.4 °F - 37.4 °F 100% 30.08 in 0.2 mi Calm Calm - N/A Fog Fog
5:22 AM 37.4 °F - 37.4 °F 100% 30.08 in 1.0 mi Calm Calm - N/A   Mist
5:27 AM 37.4 °F - 37.4 °F 100% 30.09 in 2.0 mi Calm Calm - N/A   Clear
5:37 AM 37.4 °F - 37.4 °F 100% 30.09 in 0.8 mi Calm Calm - N/A   Clear
5:53 AM 37.0 °F - 37.0 °F 100% 30.11 in 0.5 mi Calm Calm - N/A Fog Fog
5:57 AM 37.4 °F - 37.4 °F 100% 30.11 in 4.0 mi Calm Calm - N/A   Partly Cloudy
6:18 AM 37.4 °F - 37.4 °F 100% 30.12 in 4.0 mi Calm Calm - N/A   Mostly Cloudy
6:53 AM 37.0 °F - 37.0 °F 100% 30.13 in 4.0 mi Calm Calm - N/A   Clear
7:00 AM 37.4 °F - 37.4 °F 100% 30.14 in 0.2 mi Calm Calm - N/A Fog Fog
7:15 AM 39.2 °F - 37.4 °F 93% 30.14 in 1.2 mi Calm Calm - N/A   Scattered Clouds
7:23 AM 39.2 °F - 39.2 °F 100% 30.15 in 2.0 mi Calm Calm - N/A   Mostly Cloudy
7:30 AM 41.0 °F - 39.2 °F 93% 30.15 in 1.0 mi Calm Calm - N/A   Overcast
7:40 AM 42.8 °F - 42.8 °F 100% 30.15 in 3.0 mi Calm Calm - N/A   Mostly Cloudy
7:48 AM 44.6 °F 43.1 °F 42.8 °F 93% 30.16 in 2.5 mi South 3.5 mph - N/A   Overcast
7:53 AM 45.0 °F 43.5 °F 44.1 °F 97% 30.15 in 3.0 mi SSE 3.5 mph - N/A   Overcast
8:23 AM 46.4 °F 43.5 °F 46.4 °F 100% 30.15 in 2.5 mi South 5.8 mph - N/A   Overcast
8:33 AM 46.4 °F 44.3 °F 46.4 °F 100% 30.15 in 1.2 mi SSE 4.6 mph - N/A   Overcast
8:45 AM 48.2 °F - 46.4 °F 93% 30.15 in 3.0 mi SSE 5.8 mph - N/A   Overcast
8:53 AM 46.9 °F - 46.0 °F 97% 30.16 in 2.0 mi SE 5.8 mph - N/A   Overcast
9:53 AM 48.9 °F - 46.9 °F 93% 30.18 in 4.0 mi SSW 4.6 mph - N/A   Overcast
10:53 AM 54.0 °F - 48.0 °F 80% 30.18 in 6.0 mi SW 5.8 mph - N/A   Haze
11:22 AM 57.2 °F - 48.2 °F 72% 30.18 in 10.0 mi SW 6.9 mph - N/A   Mostly Cloudy
11:53 AM 57.9 °F - 48.9 °F 72% 30.17 in 10.0 mi South 4.6 mph - N/A   Clear
12:53 PM 64.0 °F - 50.0 °F 60% 30.14 in 10.0 mi Variable 3.5 mph - N/A   Partly Cloudy
1:53 PM 66.0 °F - 50.0 °F 56% 30.11 in 10.0 mi Variable 3.5 mph - N/A   Mostly Cloudy
2:53 PM 66.0 °F - 48.0 °F 52% 30.09 in 10.0 mi West 4.6 mph - N/A   Scattered Clouds
3:53 PM 66.9 °F - 48.0 °F 51% 30.08 in 10.0 mi Calm Calm - N/A   Partly Cloudy
4:53 PM 66.9 °F - 48.0 °F 51% 30.09 in 10.0 mi Calm Calm - N/A   Scattered Clouds
5:53 PM 64.9 °F - 48.9 °F 56% 30.11 in 10.0 mi Calm Calm - N/A   Overcast
6:53 PM 63.0 °F - 48.9 °F 60% 30.13 in 10.0 mi Calm Calm - N/A   Overcast
7:53 PM 61.0 °F - 51.1 °F 70% 30.14 in 10.0 mi NW 3.5 mph - N/A   Overcast
8:53 PM 61.0 °F - 50.0 °F 67% 30.17 in 10.0 mi Calm Calm - N/A   Overcast
9:53 PM 60.1 °F - 51.1 °F 72% 30.18 in 10.0 mi North 3.5 mph - N/A   Overcast
10:53 PM 59.0 °F - 51.1 °F 75% 30.18 in 10.0 mi North 5.8 mph - N/A   Overcast
11:53 PM 59.0 °F - 51.1 °F 75% 30.20 in 10.0 mi NW 5.8 mph - N/A   Overcast